FW1655 Weather Reports


time (UTC)temp
C
wind
direction
speed
KPH
gust
KPH
rain 1hr
cm
rain 24hr
cm
rain mn
cm
humidity
%
barometer
mb
20181021184929 6 322 6.4 16.1 0.00 0.00 0.00 56 809.3
20181021183426 6 39 4.8 16.1 0.00 0.00 0.00 57 994.0
20181021181925 6 43 4.8 17.7 0.00 0.00 0.00 60 993.1
20181021180422 6 32 1.6 16.1 0.00 0.00 0.00 60 1002.7
20181021174921 6 360 4.8 25.7 0.00 0.00 0.00 59 999.8
20181021173419 6 45 1.6 12.9 0.00 0.00 0.00 63 999.5
20181021171915 6 30 3.2 16.1 0.00 0.00 0.00 60 998.6
20181021170414 7 356 1.6 14.5 0.00 0.00 0.00 61 996.9
20181021163414 7 18 6.4 14.5 0.00 0.00 0.00 59 992.8
20181021161911 7 325 6.4 17.7 0.00 0.00 0.00 60 870.4
20181021160407 7 297 8.0 17.7 0.00 0.00 0.00 61 864.5
20181021154906 6 11 6.4 19.3 0.00 0.00 0.00 62 871.3
20181021153405 6 319 4.8 16.1 0.00 0.00 0.00 64 873.0
20181021151901 6 281 4.8 17.7 0.00 0.00 0.00 63 878.1
20181021150400 6 356 3.2 14.5 0.00 0.00 0.00 65 885.5
20181021144858 6 321 3.2 14.5 0.00 0.00 0.00 67 898.1
20181021143355 6 32 0.0 4.8 0.00 0.00 0.00 71 879.6
20181021141855 6 12 0.0 9.7 0.00 0.00 0.00 70 799.8
20181021140353 6 290 0.0 9.7 0.00 0.00 0.00 70 799.8
20181021134855 6 96 0.0 9.7 0.00 0.00 0.00 69 779.7
20181021133349 6 11 0.0 16.1 0.00 0.00 0.00 71 791.9
20181021131850 6 356 0.0 14.5 0.00 0.00 0.00 76 794.3
20181021130350 6 23 0.0 6.4 0.00 0.00 0.00 83 763.3
20181021124843 -17 0.0 0.0 0.00 0.00 0.00 791.4
20181021123341 -17 0.0 0.0 0.00 0.00 0.00 756.4
20181021121835 -17 0.0 0.0 0.00 0.00 0.00 769.5
20181021120329 -17 0.0 0.0 0.00 0.00 0.00 769.5
20181021114826 -17 0.0 0.0 0.00 0.00 0.00 772.4
20181021113322 -17 0.0 0.0 0.00 0.00 0.00 789.3
20181021111816 -17 0.0 0.0 0.00 0.00 0.00 812.1
20181021110312 -17 0.0 0.0 0.00 0.00 0.00 847.6
20181021104811 -17 0.0 0.0 0.00 0.00 0.00 815.0
20181021103307 -17 0.0 0.0 0.00 0.00 0.00 815.0
20181021101801 -17 0.0 0.0 0.00 0.00 0.00 814.6
20181021100259 -17 0.0 0.0 0.00 0.00 0.00 823.6
20181021094756 -17 0.0 0.0 0.00 0.00 0.00 822.5
20181021093249 -17 0.0 0.0 0.00 0.00 0.00 857.4
20181021091744 -17 0.0 0.0 0.00 0.00 0.00 857.4
20181021090240 -17 0.0 0.0 0.00 0.00 0.00 833.0
20181021084736 8 358 0.0 6.4 0.00 0.00 0.00 78 834.6
20181021083233 8 360 0.0 8.0 0.00 0.00 0.00 78 979.6
20181021081732 8 36 0.0 4.8 0.00 0.00 0.00 78 987.7
20181021080247 8 345 0.0 4.8 0.00 0.00 0.00 80 988.8
20181021074723 8 298 0.0 3.2 0.00 0.00 0.00 85 990.9
20181021073233 8 12 0.0 0.0 0.00 0.00 0.00 87 991.3
20181021071835 8 11 0.0 1.6 0.00 0.00 0.00 87 991.8
20181021070222 8 98 0.0 0.0 0.00 0.00 0.00 88 991.7
20181021064718 8 99 0.0 0.0 0.00 0.00 0.00 88 992.7
20181021063217 8 343 0.0 0.0 0.00 0.00 0.00 88 992.6
20181021061717 8 34 0.0 1.6 0.00 0.00 0.00 87 993.0
20181021060525 8 19 0.0 1.6 0.00 0.00 0.00 89 993.0
20181021054714 8 44 0.0 0.0 0.00 0.00 0.00 89 993.8
20181021053238 9 304 0.0 0.0 0.00 0.00 0.00 89 993.7
20181021051714 9 307 0.0 0.0 0.00 0.00 0.00 89 993.8
20181021050213 8 347 0.0 0.0 0.00 0.00 0.00 90 993.9
20181021044818 8 246 0.0 0.0 0.00 0.00 0.00 91 994.1
20181021043220 8 229 0.0 1.6 0.00 0.00 0.00 91 993.0
20181021041707 8 292 0.0 3.2 0.00 0.00 0.00 91 992.7
20181021040207 8 331 0.0 0.0 0.00 0.00 0.00 91 992.8
20181021034705 8 307 0.0 0.0 0.00 0.00 0.00 90 991.5
20181021033203 9 262 0.0 1.6 0.00 0.00 0.00 89 1016.2
20181021031701 9 278 0.0 4.8 0.00 0.00 0.00 88 1016.2
20181021030303 9 283 0.0 1.6 0.00 0.00 0.00 88 1024.9
20181021024809 9 287 0.0 1.6 0.00 0.00 0.00 88 797.5
20181021023158 9 311 0.0 1.6 0.00 0.00 0.00 88 844.8
20181021021658 10 277 0.0 1.6 0.00 0.00 0.00 87 855.3
20181021020251 10 285 0.0 1.6 0.00 0.00 0.00 87 862.5
20181021014655 10 300 0.0 0.0 0.00 0.00 0.00 86 863.2
20181021013152 10 308 0.0 0.0 0.00 0.00 0.00 85 866.6
20181021011729 10 304 0.0 0.0 0.00 0.00 0.00 83 871.8
20181021010151 10 315 0.0 1.6 0.00 0.00 0.00 82 871.8
20181021004649 11 302 0.0 1.6 0.00 0.00 0.00 81 823.0
20181021003148 11 283 0.0 1.6 0.00 0.00 0.00 81 799.5
20181021001645 11 233 0.0 0.0 0.00 0.00 0.00 81 823.9
20181021000145 11 270 0.0 1.6 0.00 0.00 0.00 80 844.4
20181020234648 11 299 0.0 0.0 0.00 0.00 0.00 81 749.1
20181020233142 11 278 0.0 0.0 0.00 0.00 0.00 81 801.2
20181020231655 11 270 0.0 0.0 0.00 0.00 0.00 80 801.2
20181020230207 12 270 0.0 0.0 0.00 0.00 0.00 78 801.2
20181020224653 12 249 0.0 0.0 0.00 0.00 0.00 77 764.5
20181020223141 12 326 0.0 0.0 0.00 0.00 0.00 75 778.5
20181020221728 13 326 0.0 0.0 0.00 0.00 0.00 73 787.8
20181020220139 13 110 0.0 0.0 0.00 0.00 0.00 72 798.4
20181020214704 13 285 0.0 0.0 0.00 0.00 0.00 71 801.6
20181020213222 14 254 0.0 1.6 0.00 0.00 0.00 69 801.6
20181020211743 15 20 0.0 1.6 0.00 0.00 0.00 69 802.9
20181020210151 15 344 0.0 1.6 0.00 0.00 0.00 70 825.2
20181020204812 15 316 0.0 1.6 0.00 0.00 0.00 68 772.7
20181020203251 16 255 0.0 1.6 0.00 0.00 0.00 69 747.9
20181020201632 16 297 0.0 3.2 0.00 0.00 0.00 69 740.6
20181020200240 16 300 0.0 8.0 0.00 0.00 0.00 66 749.5
20181020194750 16 324 0.0 6.4 0.00 0.00 0.00 67 807.6
20181020193151 16 258 0.0 8.0 0.00 0.00 0.00 68 807.6
20181020191646 16 254 0.0 6.4 0.00 0.00 0.00 69 801.4
20181020190143 16 331 0.0 6.4 0.00 0.00 0.00 70 741.3